Time,TemperatureF,DewpointF,PressureIn,WindDirection,WindDirectionDegrees,WindSpeedMPH,WindSpeedGustMPH,Humidity,HourlyPrecipIn,Conditions,Clouds,dailyrainin,SoftwareType,DateUTC
2013-01-09 00:00:00,56.3,50.2,29.69,SSE,154,2.0,7.0,80,0.00,CLR,,0.00,WeatherDisplay:10.37,2013-01-09 06:00:00,
2013-01-09 00:15:00,56.3,50.2,29.70,SE,139,2.0,8.0,80,0.00,CLR,,0.00,WeatherDisplay:10.37,2013-01-09 06:15:00,
2013-01-09 00:30:00,56.2,50.1,29.69,SE,146,3.0,7.0,80,0.00,CLR,,0.00,WeatherDisplay:10.37,2013-01-09 06:30:00,
2013-01-09 00:45:00,56.1,50.4,29.70,ESE,123,1.0,9.0,81,0.00,CLR,,0.00,WeatherDisplay:10.37,2013-01-09 06:45:00,
2013-01-09 01:00:00,56.2,50.1,29.70,SE,136,3.0,8.0,80,0.00,CLR,,0.00,WeatherDisplay:10.37,2013-01-09 07:00:00,
2013-01-09 01:15:00,56.2,50.1,29.70,East,100,1.0,8.0,80,0.00,CLR,,0.00,WeatherDisplay:10.37,2013-01-09 07:15:00,
2013-01-09 01:30:00,56.1,50.0,29.70,ESE,111,1.0,4.0,80,0.00,CLR,,0.00,WeatherDisplay:10.37,2013-01-09 07:30:00,
2013-01-09 01:45:00,56.1,50.0,29.70,SE,128,1.0,6.0,80,0.00,CLR,,0.00,WeatherDisplay:10.37,2013-01-09 07:45:00,
2013-01-09 02:00:00,56.1,50.0,29.70,East,101,1.0,5.0,80,0.00,CLR,,0.00,WeatherDisplay:10.37,2013-01-09 08:00:00,
2013-01-09 02:15:00,56.2,49.7,29.70,East,95,1.0,5.0,79,0.00,CLR,,0.00,WeatherDisplay:10.37,2013-01-09 08:15:00,
2013-01-09 02:30:00,56.3,49.8,29.69,East,81,2.0,5.0,79,0.00,CLR,,0.00,WeatherDisplay:10.37,2013-01-09 08:30:00,
2013-01-09 02:45:00,56.3,50.2,29.69,NE,49,1.0,8.0,80,0.00,CLR,,0.00,WeatherDisplay:10.37,2013-01-09 08:45:00,
2013-01-09 03:00:00,56.3,50.2,29.70,NE,55,2.0,7.0,80,0.00,CLR,,0.00,WeatherDisplay:10.37,2013-01-09 09:00:00,
2013-01-09 03:15:00,56.4,50.6,29.71,NE,50,0.0,5.0,81,0.00,CLR,,0.00,WeatherDisplay:10.37,2013-01-09 09:15:00,
2013-01-09 03:30:00,56.2,51.1,29.71,East,95,1.0,4.0,83,0.00,CLR,,0.00,WeatherDisplay:10.37,2013-01-09 09:30:00,
2013-01-09 03:45:00,55.7,51.6,29.71,ENE,66,1.0,3.0,86,0.01,RA,,0.01,WeatherDisplay:10.37,2013-01-09 09:45:00,
2013-01-09 04:00:00,55.2,52.3,29.70,East,87,1.0,6.0,90,0.01,RA,,0.02,WeatherDisplay:10.37,2013-01-09 10:00:00,
2013-01-09 04:15:00,55.1,52.2,29.71,NE,51,0.0,3.0,90,0.00,CLR,,0.02,WeatherDisplay:10.37,2013-01-09 10:15:00,
2013-01-09 04:30:00,54.7,52.7,29.71,NE,44,1.0,2.0,93,0.00,CLR,,0.02,WeatherDisplay:10.37,2013-01-09 10:30:00,
2013-01-09 04:45:00,54.7,52.4,29.71,East,100,1.0,2.0,92,0.02,RA,,0.04,WeatherDisplay:10.37,2013-01-09 10:45:00,
2013-01-09 05:00:00,54.4,52.4,29.71,ENE,77,0.0,2.0,93,0.00,CLR,,0.04,WeatherDisplay:10.37,2013-01-09 11:00:00,
2013-01-09 05:15:00,54.5,52.5,29.72,East,87,0.0,4.0,93,0.00,CLR,,0.04,WeatherDisplay:10.37,2013-01-09 11:15:00,
2013-01-09 05:30:00,54.6,52.6,29.72,ENE,75,1.0,2.0,93,0.00,CLR,,0.04,WeatherDisplay:10.37,2013-01-09 11:30:00,
2013-01-09 05:45:00,54.2,52.5,29.72,East,96,1.0,3.0,94,0.00,CLR,,0.04,WeatherDisplay:10.37,2013-01-09 11:45:00,
2013-01-09 06:00:00,54.2,52.5,29.72,East,84,0.0,3.0,94,0.00,CLR,,0.04,WeatherDisplay:10.37,2013-01-09 12:00:00,
2013-01-09 06:15:00,54.8,52.8,29.73,ENE,62,0.0,4.0,93,0.00,CLR,,0.04,WeatherDisplay:10.37,2013-01-09 12:15:00,
2013-01-09 06:30:00,55.3,53.0,29.73,ENE,65,1.0,2.0,92,0.00,CLR,,0.04,WeatherDisplay:10.37,2013-01-09 12:30:00,
2013-01-09 06:45:00,55.7,53.1,29.73,ENE,58,2.0,4.0,91,0.00,CLR,,0.04,WeatherDisplay:10.37,2013-01-09 12:45:00,
2013-01-09 07:00:00,56.0,53.1,29.73,East,86,2.0,4.0,90,0.00,CLR,,0.04,WeatherDisplay:10.37,2013-01-09 13:00:00,
2013-01-09 07:15:00,56.3,53.4,29.74,East,81,1.0,5.0,90,0.00,CLR,,0.04,WeatherDisplay:10.37,2013-01-09 13:15:00,
2013-01-09 07:30:00,56.4,53.5,29.75,ENE,57,1.0,4.0,90,0.00,CLR,,0.04,WeatherDisplay:10.37,2013-01-09 13:30:00,
2013-01-09 07:45:00,56.7,53.8,29.76,NE,54,1.0,4.0,90,0.00,CLR,,0.04,WeatherDisplay:10.37,2013-01-09 13:45:00,
2013-01-09 08:00:00,56.7,53.8,29.77,ENE,71,1.0,3.0,90,0.00,CLR,,0.04,WeatherDisplay:10.37,2013-01-09 14:00:00,
2013-01-09 08:15:00,56.7,53.8,29.77,East,87,1.0,4.0,90,0.00,CLR,,0.04,WeatherDisplay:10.37,2013-01-09 14:15:00,
2013-01-09 08:30:00,57.0,54.1,29.77,East,100,1.0,5.0,90,0.00,CLR,,0.04,WeatherDisplay:10.37,2013-01-09 14:30:00,
2013-01-09 08:45:00,57.2,53.9,29.78,ESE,105,2.0,4.0,89,0.00,CLR,,0.04,WeatherDisplay:10.37,2013-01-09 14:45:00,
2013-01-09 09:00:00,57.5,54.2,29.77,ESE,110,3.0,5.0,89,0.00,CLR,,0.04,WeatherDisplay:10.37,2013-01-09 15:00:00,
2013-01-09 09:15:00,57.8,54.5,29.77,ESE,107,2.0,5.0,89,0.00,CLR,,0.04,WeatherDisplay:10.37,2013-01-09 15:15:00,
2013-01-09 09:30:00,57.9,54.7,29.77,ESE,114,1.0,4.0,89,0.00,CLR,,0.04,WeatherDisplay:10.37,2013-01-09 15:30:00,
2013-01-09 09:45:00,57.9,54.6,29.77,ESE,103,2.0,5.0,89,0.00,CLR,,0.04,WeatherDisplay:10.37,2013-01-09 15:45:00,
2013-01-09 10:00:00,58.1,54.8,29.78,SE,127,1.0,6.0,89,0.00,CLR,,0.04,WeatherDisplay:10.37,2013-01-09 16:00:00,
2013-01-09 10:15:00,58.6,55.0,29.78,SE,139,2.0,3.0,88,0.00,CLR,,0.04,WeatherDisplay:10.37,2013-01-09 16:15:00,
2013-01-09 10:30:00,59.0,55.4,29.76,ESE,121,2.0,5.0,88,0.00,CLR,,0.04,WeatherDisplay:10.37,2013-01-09 16:30:00,
2013-01-09 10:45:00,59.1,55.5,29.75,ESE,102,1.0,6.0,88,0.00,CLR,,0.04,WeatherDisplay:10.37,2013-01-09 16:45:00,
2013-01-09 11:00:00,59.4,55.5,29.75,ESE,107,1.0,5.0,87,0.00,CLR,,0.04,WeatherDisplay:10.37,2013-01-09 17:00:00,
2013-01-09 11:15:00,59.7,55.8,29.74,ESE,103,2.0,5.0,87,0.00,CLR,,0.04,WeatherDisplay:10.37,2013-01-09 17:15:00,
2013-01-09 11:30:00,60.3,56.1,29.74,ESE,117,3.0,4.0,86,0.00,CLR,,0.04,WeatherDisplay:10.37,2013-01-09 17:30:00,
2013-01-09 11:45:00,60.5,56.3,29.73,SE,130,2.0,5.0,86,0.00,CLR,,0.04,WeatherDisplay:10.37,2013-01-09 17:45:00,
2013-01-09 12:00:00,60.6,56.0,29.72,East,101,2.0,5.0,85,0.00,CLR,,0.04,WeatherDisplay:10.37,2013-01-09 18:00:00,
2013-01-09 12:15:00,60.8,56.2,29.72,ENE,76,1.0,6.0,85,0.00,CLR,,0.04,WeatherDisplay:10.37,2013-01-09 18:15:00,
2013-01-09 12:30:00,61.3,56.4,29.72,East,86,1.0,5.0,84,0.00,CLR,,0.04,WeatherDisplay:10.37,2013-01-09 18:30:00,
2013-01-09 12:45:00,61.3,56.7,29.72,ESE,111,1.0,4.0,85,0.00,CLR,,0.04,WeatherDisplay:10.37,2013-01-09 18:45:00,
2013-01-09 13:00:00,61.5,56.9,29.71,SE,141,2.0,4.0,85,0.00,CLR,,0.04,WeatherDisplay:10.37,2013-01-09 19:00:00,
2013-01-09 13:15:00,61.9,57.0,29.70,ESE,116,2.0,4.0,84,0.00,CLR,,0.04,WeatherDisplay:10.37,2013-01-09 19:15:00,
2013-01-09 13:30:00,62.3,57.4,29.71,SE,144,1.0,5.0,84,0.00,CLR,,0.04,WeatherDisplay:10.37,2013-01-09 19:30:00,
2013-01-09 13:45:00,62.6,57.3,29.70,ESE,123,1.0,4.0,83,0.00,CLR,,0.04,WeatherDisplay:10.37,2013-01-09 19:45:00,
2013-01-09 14:00:00,62.8,57.2,29.71,East,94,1.0,5.0,82,0.00,CLR,,0.04,WeatherDisplay:10.37,2013-01-09 20:00:00,
2013-01-09 14:15:00,62.7,57.4,29.71,East,94,1.0,3.0,83,0.00,CLR,,0.04,WeatherDisplay:10.37,2013-01-09 20:15:00,
2013-01-09 14:30:00,62.7,57.4,29.71,SE,124,1.0,5.0,83,0.00,CLR,,0.04,WeatherDisplay:10.37,2013-01-09 20:30:00,
2013-01-09 14:45:00,62.6,57.7,29.71,East,83,1.0,2.0,84,0.00,CLR,,0.04,WeatherDisplay:10.37,2013-01-09 20:45:00,
2013-01-09 15:00:00,62.6,57.7,29.71,ENE,70,1.0,3.0,84,0.00,CLR,,0.04,WeatherDisplay:10.37,2013-01-09 21:00:00,
2013-01-09 15:15:00,62.8,58.2,29.71,East,89,0.0,2.0,85,0.00,CLR,,0.04,WeatherDisplay:10.37,2013-01-09 21:15:00,
2013-01-09 15:30:00,63.0,58.0,29.71,NE,50,1.0,3.0,84,0.00,CLR,,0.04,WeatherDisplay:10.37,2013-01-09 21:30:00,
2013-01-09 15:45:00,63.0,58.0,29.71,ENE,78,1.0,2.0,84,0.00,CLR,,0.04,WeatherDisplay:10.37,2013-01-09 21:45:00,
2013-01-09 16:00:00,62.8,57.9,29.71,ENE,71,1.0,4.0,84,0.00,CLR,,0.04,WeatherDisplay:10.37,2013-01-09 22:00:00,
2013-01-09 16:15:00,62.8,57.9,29.71,ENE,67,1.0,2.0,84,0.00,CLR,,0.04,WeatherDisplay:10.37,2013-01-09 22:15:00,
2013-01-09 16:30:00,62.5,57.6,29.71,ENE,78,0.0,2.0,84,0.00,CLR,,0.04,WeatherDisplay:10.37,2013-01-09 22:30:00,
2013-01-09 16:45:00,62.1,57.5,29.71,ENE,74,0.0,3.0,85,0.00,CLR,,0.04,WeatherDisplay:10.37,2013-01-09 22:45:00,
2013-01-09 17:00:00,62.0,57.4,29.71,ENE,72,1.0,3.0,85,0.00,CLR,,0.04,WeatherDisplay:10.37,2013-01-09 23:00:00,
2013-01-09 17:15:00,61.9,57.6,29.71,NE,54,0.0,3.0,86,0.00,CLR,,0.04,WeatherDisplay:10.37,2013-01-09 23:15:00,
2013-01-09 17:30:00,62.0,57.7,29.72,ENE,60,1.0,3.0,86,0.00,CLR,,0.04,WeatherDisplay:10.37,2013-01-09 23:30:00,
2013-01-09 17:45:00,61.9,57.6,29.72,East,85,0.0,3.0,86,0.00,CLR,,0.04,WeatherDisplay:10.37,2013-01-09 23:45:00,
2013-01-09 18:00:00,61.8,57.5,29.73,ENE,61,1.0,2.0,86,0.00,CLR,,0.04,WeatherDisplay:10.37,2013-01-10 00:00:00,
2013-01-09 18:15:00,62.0,57.7,29.74,ENE,62,1.0,2.0,86,0.00,CLR,,0.04,WeatherDisplay:10.37,2013-01-10 00:15:00,
2013-01-09 18:30:00,61.9,57.9,29.73,ENE,66,0.0,1.0,87,0.00,CLR,,0.04,WeatherDisplay:10.37,2013-01-10 00:30:00,
2013-01-09 18:45:00,61.7,57.8,29.74,East,86,0.0,2.0,87,0.00,CLR,,0.04,WeatherDisplay:10.37,2013-01-10 00:45:00,
2013-01-09 19:00:00,62.4,59.4,29.74,ESE,113,1.0,4.0,90,0.00,CLR,,0.04,WeatherDisplay:10.37,2013-01-10 01:00:00,
2013-01-09 19:15:00,63.1,59.4,29.74,East,99,2.0,5.0,88,0.00,CLR,,0.04,WeatherDisplay:10.37,2013-01-10 01:15:00,
2013-01-09 19:30:00,62.9,59.9,29.74,SE,142,2.0,10.0,90,0.00,CLR,,0.04,WeatherDisplay:10.37,2013-01-10 01:30:00,
2013-01-09 19:45:00,62.7,60.0,29.75,ESE,116,2.0,4.0,91,0.00,CLR,,0.04,WeatherDisplay:10.37,2013-01-10 01:45:00,
2013-01-09 20:00:00,62.6,59.9,29.75,ESE,116,1.0,4.0,91,0.00,CLR,,0.04,WeatherDisplay:10.37,2013-01-10 02:00:00,
2013-01-09 20:15:00,62.6,59.9,29.75,SE,125,0.0,3.0,91,0.00,CLR,,0.04,WeatherDisplay:10.37,2013-01-10 02:15:00,
2013-01-09 20:30:00,62.4,60.3,29.75,ESE,117,1.0,4.0,93,0.00,CLR,,0.04,WeatherDisplay:10.37,2013-01-10 02:30:00,
2013-01-09 20:45:00,62.5,60.4,29.75,SE,127,3.0,7.0,93,0.00,CLR,,0.04,WeatherDisplay:10.37,2013-01-10 02:45:00,
2013-01-09 21:00:00,62.8,60.8,29.74,SSE,150,2.0,7.0,93,0.00,CLR,,0.04,WeatherDisplay:10.37,2013-01-10 03:00:00,
2013-01-09 21:15:00,63.1,60.7,29.75,SSE,149,3.0,9.0,92,0.00,CLR,,0.04,WeatherDisplay:10.37,2013-01-10 03:15:00,
2013-01-09 21:30:00,63.2,60.8,29.75,ESE,122,2.0,9.0,92,0.00,CLR,,0.04,WeatherDisplay:10.37,2013-01-10 03:30:00,
2013-01-09 21:45:00,63.3,61.2,29.75,SE,127,1.0,6.0,93,0.00,CLR,,0.04,WeatherDisplay:10.37,2013-01-10 03:45:00,
2013-01-09 22:00:00,63.4,61.3,29.75,SE,128,3.0,9.0,93,0.00,CLR,,0.04,WeatherDisplay:10.37,2013-01-10 04:00:00,
2013-01-09 22:15:00,63.4,61.3,29.75,SE,130,2.0,7.0,93,0.00,CLR,,0.04,WeatherDisplay:10.37,2013-01-10 04:15:00,
2013-01-09 22:30:00,63.4,61.3,29.75,SE,139,3.0,7.0,93,0.00,CLR,,0.04,WeatherDisplay:10.37,2013-01-10 04:30:00,
2013-01-09 22:45:00,63.2,61.4,29.75,SE,142,1.0,6.0,94,0.00,CLR,,0.04,WeatherDisplay:10.37,2013-01-10 04:45:00,
2013-01-09 23:00:00,63.2,61.4,29.75,SE,127,1.0,6.0,94,0.00,CLR,,0.04,WeatherDisplay:10.37,2013-01-10 05:00:00,
2013-01-09 23:16:00,63.3,61.5,29.76,SE,138,2.0,5.0,94,0.00,CLR,,0.04,WeatherDisplay:10.37,2013-01-10 05:16:00,
2013-01-09 23:30:00,63.4,61.6,29.76,SE,139,1.0,5.0,94,0.00,CLR,,0.04,WeatherDisplay:10.37,2013-01-10 05:30:00,
2013-01-09 23:45:00,63.1,61.6,29.76,SSE,154,3.0,6.0,95,0.02,RA,,0.06,WeatherDisplay:10.37,2013-01-10 05:45:00,